DELTA 1 DEB, 42094

Orbit data source: Space-Track

DELTA 1 DEB, 42094 is space debris in SSO originally from a launch on Sun, 15 Dec 1968 UTC launched from the Air Force Western Test Range (AFWTR). Debris objects in space refer to the collection of defunct objects orbiting the Earth. Examples of debris include non-operational satellites, rocket bodies, and fragments generated from explosions, collisions, or faulty payload assembly.

Loading next visibility...
Identifier
42094, 1968-114W
Orbit
SSO
Country
Flag of USUS
Related business
Manufacturer
Aerojet
Mission
Spacecraft
Bus & Motor
Unknown
Mass
Unknown
Launch date (UTC)
1968-12-15 (57 years ago)
Launch vehicle
Unknown
Launch site
Air Force Western Test Range (AFWTR)
Object type
Payload
Rocket body
Debris
Shape & HBR
Unknown shape, 0.1 m
Radar Cross Section
Small (<0.1 m²)

Expand to show TLE details & history
Last TLE update: 4 days ago

TLE from 4 days ago
0 DELTA 1 DEB
1 42094U 68114W   25287.47599352  .00000563  00000-0  43835-2 0  9996
2 42094 101.5933 182.9731 0198481  94.8147 267.5610 12.37180375265645
Epoch: 2025-10-14T11:25Z
TLE epoch observation values (Epoch: 2025-10-14T11:25:25.840Z)
Latitude
Longitude
-11.64844°
Altitude
1,530.913 km
Speed
7.096 km/s
True Right ascension
12h 11m 53s
True Declination
0° 00' 00"
Sunlit
Object was in daylight at epoch
Visualization orbit readout
Latitude
Unknown
Longitude
Unknown
Altitude
Unknown
Speed
Unknown
Apparent Right ascension
Unknown
Apparent Declination
Unknown
Sunlit
N/A
Visualization observer readout
Local Sidereal Time
04:26:14
Azimuth
Unknown
Elevation
Unknown
Doppler factor
Unknown
Orbital elements
Apogee altitude
1,672.818 km
Perigee altitude
1,359.446 km
Semi-major axis
7,894.269 km
Eccentricity
0.01985
Inclination
101.5933°
RAAN
182.9731°
Arg. of periapsis
94.8147°
True anomaly
265.29163°
Mean anomaly
267.561°
Eccentric anomaly
266.426°
Mean motion
3.09439 °/min
Orbital period
116.34 mins
BSTAR
0.0043835
Loading maneuver chart data...
Computing Atmospheric mass density...
Loading historical data...
Loading historical data...
Loading historical data...
Loading historical data...
Loading historical data...
Loading historical data...
Loading historical data...

Documentation

Showing up to 5 results
|